Youngstown, OH

6:54 PM EST on December 15, 2017 (GMT -0500)
Youngstown-Warren Regional

Weather History for KYNG - June, 2013

Change the Weather History Date:

Monday, June 3, 2013

  Actual Average Record
Temperature  
Mean Temperature 53 °F 63 °F  
Max Temperature 64 °F 74 °F 96 °F (1934)
Min Temperature 42 °F 52 °F 34 °F (1986)
Degree Days  
Heating Degree Days 12 4  
Month to date heating degree days 12 13  
Since 1 June heating degree days 12 13  
Since 1 July heating degree days 6112 6293  
Cooling Degree Days 0 2  
Month to date cooling degree days 14 6  
Year to date cooling degree days 102 45  
Since 1 June cooling degree days 14 6  
Growing Degree Days 6 (Base 50)    
Moisture  
Dew Point 44 °F    
Average Humidity 61    
Maximum Humidity 86    
Minimum Humidity 36    
Precipitation  
Precipitation 0.00 in 0.13 in 1.60 in (1950)
Month to date precipitation 0.90 0.39  
Year to date precipitation 12.67 15.18  
Snow  
Snow 0.00 in 0.00 in - ()
Month to date snowfall 0.0 0.0  
Since 1 June snowfall 0.0 0.0  
Since 1 July snowfall 80.9 62.7  
Snow Depth 0.00 in    
Sea Level Pressure  
Sea Level Pressure 30.00 in    
Wind  
Wind Speed 8 mph (North)    
Max Wind Speed 15 mph    
Max Gust Speed 21 mph    
Visibility 10 miles    
Events      
T = Trace of Precipitation, MM = Missing Value Source: NWS Daily Summary

Daily Weather History Graph

Daily Weather History Graph

Search for Another Location

Airport or City:

Trip Planner

Search our weather history database for the weather conditions in past years. The results will help you decide how hot, cold, wet, or windy it might be!

Date:

Astronomy

Jun. 03, 2013 Rise Set
Actual Time 5:51 AM EDT 8:51 PM EDT
Civil Twilight 5:17 AM EDT 9:24 PM EDT
Nautical Twilight 4:35 AM EDT 10:06 PM EDT
Astronomical Twilight 3:46 AM EDT 10:56 PM EDT
Moon 2:50 AM EDT (6/3) 4:17 PM EDT (6/3)
Length of Visible Light 16h 06m
Length of Day
14h 59m
Waning Crescent, 22% of the Moon is Illuminated
Jun 3
Waning Crescent
Jun 8
New
Jun 16
First Quarter
Jun 23
Full
Jun 30
Last Quarter

Hourly Weather History & Observations

Time (EDT) Temp. Dew Point Humidity Pressure Visibility Wind Dir Wind Speed Gust Speed Precip Events Conditions
12:51 AM 57.9 °F 53.1 °F 84% 29.91 in 10.0 mi North 6.9 mph - N/A   Scattered Clouds
1:51 AM 55.9 °F 51.1 °F 84% 29.91 in 10.0 mi North 10.4 mph - N/A   Scattered Clouds
2:23 AM 57.2 °F 51.8 °F 82% 29.94 in 10.0 mi NNE 4.6 mph - N/A   Overcast
2:51 AM 57.0 °F 50.0 °F 77% 29.94 in 10.0 mi North 6.9 mph - N/A   Overcast
3:51 AM 55.0 °F 50.0 °F 83% 29.93 in 10.0 mi North 8.1 mph - N/A   Mostly Cloudy
4:51 AM 55.0 °F 48.0 °F 77% 29.95 in 10.0 mi North 8.1 mph - N/A   Overcast
5:51 AM 53.1 °F 45.0 °F 74% 29.97 in 10.0 mi North 10.4 mph - N/A   Overcast
6:25 AM 53.6 °F 46.4 °F 77% 29.98 in 10.0 mi NNW 11.5 mph - N/A   Overcast
6:51 AM 53.1 °F 46.0 °F 77% 29.98 in 10.0 mi North 11.5 mph - N/A   Overcast
7:42 AM 51.8 °F 46.4 °F 82% 30.00 in 10.0 mi North 9.2 mph - N/A   Overcast
7:51 AM 52.0 °F 46.0 °F 80% 30.00 in 10.0 mi North 12.7 mph - N/A   Overcast
8:51 AM 52.0 °F 45.0 °F 77% 30.01 in 10.0 mi North 11.5 mph - N/A   Overcast
9:51 AM 54.0 °F 45.0 °F 72% 30.02 in 10.0 mi NNW 12.7 mph - N/A   Overcast
10:51 AM 55.9 °F 45.0 °F 67% 30.03 in 10.0 mi NNW 10.4 mph - N/A   Overcast
11:51 AM 55.9 °F 45.0 °F 67% 30.03 in 10.0 mi NNW 5.8 mph 18.4 mph N/A   Overcast
12:51 PM 59.0 °F 45.0 °F 60% 30.03 in 10.0 mi NNW 11.5 mph - N/A   Mostly Cloudy
1:41 PM 60.8 °F 44.6 °F 55% 30.02 in 10.0 mi North 8.1 mph 18.4 mph N/A   Scattered Clouds
1:51 PM 61.0 °F 45.0 °F 56% 30.03 in 10.0 mi NNW 12.7 mph 17.3 mph N/A   Scattered Clouds
2:51 PM 63.0 °F 44.1 °F 50% 30.01 in 10.0 mi NNW 10.4 mph - N/A   Scattered Clouds
3:51 PM 63.0 °F 43.0 °F 48% 30.01 in 10.0 mi North 8.1 mph 16.1 mph N/A   Partly Cloudy
4:51 PM 63.0 °F 39.9 °F 43% 30.01 in 10.0 mi North 8.1 mph - N/A   Partly Cloudy
5:51 PM 62.1 °F 36.0 °F 38% 30.00 in 10.0 mi North 8.1 mph - N/A   Partly Cloudy
6:51 PM 60.1 °F 35.1 °F 39% 30.02 in 10.0 mi North 9.2 mph - N/A   Scattered Clouds
7:51 PM 57.9 °F 36.0 °F 44% 30.04 in 10.0 mi NNW 9.2 mph - N/A   Partly Cloudy
8:51 PM 53.1 °F 37.9 °F 57% 30.05 in 10.0 mi North 8.1 mph - N/A   Scattered Clouds
9:51 PM 51.1 °F 39.0 °F 63% 30.08 in 10.0 mi North 5.8 mph - N/A   Scattered Clouds
10:51 PM 50.0 °F 39.0 °F 66% 30.10 in 10.0 mi Calm Calm - N/A   Partly Cloudy
11:51 PM 44.1 °F 39.9 °F 85% 30.11 in 10.0 mi Calm Calm - N/A   Partly Cloudy